This demonstration page uses our WeatherBlox Daily Observations layout. Learn more.

Left ArrowRight Arrow

31.84235, -102.49876

Hourly Observations for March 2, 2015

Temp ( °F °C ) Dew Point ( °F °C ) Humidity (%) Winds ( mph kmh ) Pressure ( in mb ) Visibility ( mi km ) Precip ( " mm )
12:09 am 00:09 Cloudy with Mist and Fog 32 0 30 -1.1 92 92 ENE 13 20 30.45 1031 2 3 0.00 0.00
12:53 am 00:53 Cloudy with Mist and Fog 32 0 30 -1.1 92 92 ENE 12 19 30.34 1027 2 2 0.00 0.00
1:12 am 01:12 Cloudy with Mist and Fog 32 0 30 -1.1 92 92 ENE 9 15 30.45 1031 2 3 0.00 0.00
1:33 am 01:33 Cloudy with Mist and Fog 31 -0.6 30 -1.1 96 96 NE 12 19 30.45 1031 3 5 0.00 0.00
1:53 am 01:53 Cloudy with Mist and Fog 32 0 30 -1.1 92 92 NE 12 19 30.33 1027 3 5 0.00 0.00
2:05 am 02:05 Cloudy with Mist and Fog 31 -0.6 30 -1.1 96 96 NE 13 20 30.45 1031 3 4 0.00 0.00
2:28 am 02:28 Cloudy with Mist and Fog 31 -0.6 29 -1.7 92 92 ENE 13 20 30.45 1031 3 5 0.00 0.00
2:37 am 02:37 Cloudy with Mist and Fog 31 -0.6 30 -1.1 96 96 ENE 13 20 30.45 1031 3 4 0.00 0.00
2:49 am 02:49 Cloudy with Mist and Fog 30 -1 30 -1 100 100 ENE 12 19 30.45 1031 3 5 0.00 0.00
2:53 am 02:53 Cloudy with Mist and Fog 31 -0.6 30 -1.1 96 96 ENE 10 17 30.32 1027 3 5 0.00 0.00
3:25 am 03:25 Cloudy with Mist and Fog 32 0 30 -1.1 92 92 ENE 9 15 30.45 1031 3 4 0.00 0.00
3:53 am 03:53 Cloudy with Mist and Fog 31 -0.6 30 -1.1 96 96 ENE 12 19 30.31 1026 2 3 0.00 0.00
4:13 am 04:13 Cloudy with Mist and Fog 31 -0.6 30 -1.1 96 96 ENE 12 19 30.42 1030 3 5 0.00 0.00
4:22 am 04:22 Cloudy with Mist and Fog 31 -0.6 30 -1.1 96 96 ENE 10 17 30.42 1030 2 3 0.00 0.00
4:53 am 04:53 Cloudy with Mist and Fog 31 -0.6 29 -1.7 92 92 ENE 12 19 30.31 1026 5 8 0.00 0.00
5:12 am 05:12 Cloudy with Mist and Fog 31 -0.6 30 -1.1 96 96 ENE 10 17 30.42 1030 2 3 0.00 0.00
5:49 am 05:49 Cloudy with Mist and Fog 30 -1 30 -1 100 100 NE 14 22 30.39 1029 2 3 0.00 0.00
5:53 am 05:53 Cloudy with Mist and Fog 31 -0.6 29 -1.7 92 92 ENE 14 22 30.29 1026 2 3 0.00 0.00
6:03 am 06:03 Cloudy with Mist and Fog 31 -0.6 30 -1.1 96 96 NE 12 19 30.42 1030 2 3 0.00 0.00
6:13 am 06:13 Cloudy with Mist and Fog 31 -0.6 30 -1.1 96 96 ENE 12 19 30.42 1030 2 3 0.00 0.00
6:51 am 06:51 Cloudy with Mist and Fog 30 -1 30 -1 100 100 ENE 14 22 30.42 1030 2 3 0.00 0.00
6:53 am 06:53 Cloudy with Mist and Fog 31 -0.6 30 -1.1 96 96 ENE 13 20 30.29 1026 2 2 0.00 0.00
7:24 am 07:24 Cloudy with Mist and Fog 31 -0.6 30 -1.1 96 96 ENE 8 13 30.42 1030 3 4 0.00 0.00
7:45 am 07:45 Cloudy with Mist and Fog 31 -0.6 30 -1.1 96 96 ENE 7 11 30.45 1031 2 2 0.00 0.00
7:53 am 07:53 Cloudy with Mist and Fog 32 0 30 -1.1 92 92 NE 8 13 30.33 1027 1 2 0.00 0.00
8:53 am 08:53 Cloudy with Mist and Fog 32 0 30 -1.1 92 92 E 7 11 30.34 1027 1 2 0.00 0.00
9:20 am 09:20 Cloudy with Mist and Fog 32 0 30 -1.1 92 92 E 10 17 30.42 1030 3 4 0.00 0.00
9:28 am 09:28 Cloudy with Mist and Fog 32 0 30 -1.1 92 92 E 10 17 30.45 1031 4 6 0.00 0.00
9:53 am 09:53 Cloudy with Mist and Fog 32 0 30 -1.1 92 92 E 10 17 30.32 1027 4 6 0.00 0.00
10:53 am 10:53 Cloudy with Mist and Fog 33 0.6 31 -0.6 92 92 E 9 15 30.29 1026 2 3 0.00 0.00
11:01 am 11:01 Cloudy with Mist and Fog 33 0.6 31 -0.6 92 92 E 12 19 30.36 1028 2 2 0.00 0.00
11:13 am 11:13 Cloudy with Mist and Fog 33 0.6 31 -0.6 92 92 E 9 15 30.39 1029 1 1 0.00 0.00
11:30 am 11:30 Cloudy with Mist and Fog 33 0.6 31 -0.6 92 92 E 8 13 30.39 1029 1 2 0.00 0.00
11:53 am 11:53 Cloudy with Mist and Fog 33 0.6 31 -0.6 92 92 ESE 5 7 30.29 1026 1 2 0.00 0.00
12:23 pm 12:23 Cloudy with Mist and Fog 33 0.6 31 -0.6 92 92 E 6 9 30.36 1028 1 1 0.00 0.00
12:37 pm 12:37 Cloudy with Mist and Fog 34 1.1 32 0 92 92 SE 8 13 30.33 1027 1 2 0.00 0.00
12:53 pm 12:53 Cloudy with Mist and Fog 34 1.1 32 0 92 92 ESE 8 13 30.24 1024 1 1 0.00 0.00
1:23 pm 13:23 Cloudy with Mist and Fog 34 1.1 33 0.6 97 97 ESE 8 13 30.30 1026 1 2 0.00 0.00
1:53 pm 13:53 Cloudy with Mist and Fog 34 1.1 32 0 92 92 SE 6 9 30.20 1023 2 3 0.00 0.00
2:08 pm 14:08 Cloudy with Mist and Fog 35 1.7 33 0.6 93 93 ESE 8 13 30.24 1024 2 3 0.00 0.00
2:19 pm 14:19 Cloudy with Mist and Fog 35 1.7 33 0.6 93 93 ESE 8 13 30.21 1023 2 2 0.00 0.00
2:53 pm 14:53 Cloudy with Mist and Fog 35 1.7 33 0.6 93 93 E 6 9 30.15 1021 2 2 0.00 0.00
3:46 pm 15:46 Cloudy with Mist and Fog 36 2.2 34 1.1 93 93 E 6 9 30.18 1022 2 3 0.00 0.00
3:53 pm 15:53 Cloudy with Mist and Fog 36 2.2 34 1.1 93 93 SE 6 9 30.12 1020 3 4 0.00 0.00
4:13 pm 16:13 Cloudy with Mist and Fog 36 2.2 34 1.1 93 93 SSE 6 9 30.18 1022 5 8 0.00 0.00
4:48 pm 16:48 Cloudy with Mist and Fog 36 2 34 1 93 93 E 7 11 30.18 1022 3 4 0.00 0.00
4:53 pm 16:53 Cloudy with Mist and Fog 36 2.2 34 1.1 93 93 ESE 6 9 30.11 1020 2 3 0.00 0.00
5:08 pm 17:08 Cloudy with Mist and Fog 36 2.2 34 1.1 93 93 E 6 9 30.18 1022 2 3 0.00 0.00
5:53 pm 17:53 Cloudy with Mist and Fog 36 2.2 34 1.1 93 93 ESE 5 7 30.09 1019 2 2 0.00 0.00
6:26 pm 18:26 Cloudy with Mist and Fog 36 2.2 34 1.1 93 93 ESE 7 11 30.18 1022 1 1 0.00 0.00
6:40 pm 18:40 Cloudy with Mist and Fog 36 2.2 35 1.7 97 97 ESE 5 7 30.18 1022 1 2 0.00 0.00
6:53 pm 18:53 Cloudy with Mist and Fog 36 2.2 35 1.7 97 97 ESE 3 6 30.09 1019 1 2 0.00 0.00
7:12 pm 19:12 Cloudy with Mist and Fog 36 2.2 35 1.7 97 97 ESE 6 9 30.18 1022 1 1 0.00 0.00
7:53 pm 19:53 Mostly Cloudy with Fog 37 2.8 35 1.7 93 93 SE 6 9 30.08 1019 1 1 0.00 0.00
8:15 pm 20:15 Mostly Cloudy with Fog 37 2.8 35 1.7 93 93 ESE 5 7 30.18 1022 0 0 0.00 0.00
8:53 pm 20:53 Mostly Cloudy with Fog 37 2.8 36 2.2 96 96 SSE 5 7 30.09 1019 0 0 0.00 0.00
9:11 pm 21:11 Mostly Cloudy with Fog 37 2.8 36 2.2 96 96 SE 5 7 30.18 1022 1 1 0.00 0.00
9:39 pm 21:39 Mostly Cloudy with Fog 38 3.3 36 2.2 93 93 SE 6 9 30.18 1022 0 0 0.00 0.00
9:53 pm 21:53 Mostly Cloudy with Fog 37 2.8 36 2.2 96 96 SE 5 7 30.08 1019 0 0 0.00 0.00
10:43 pm 22:43 Mostly Cloudy with Fog 38 3.3 36 2.2 93 93 SE 5 7 30.18 1022 1 1 0.00 0.00
10:53 pm 22:53 Mostly Cloudy with Fog 38 3.3 36 2.2 93 93 SE 8 13 30.06 1018 1 1 0.00 0.00
11:53 pm 23:53 Mostly Cloudy with Fog 38 3.3 37 2.8 97 97 S 7 11 30.05 1018 1 1 0.00 0.00

Powered by AerisWeather